Voltar ao catálogo

COSMOS 1191 DEB

AtivoHEO
NORAD 13999·DEBRIS·🇷🇺 Russia

Lançado Jul 2, 1980 de Plesetsk Cosmodrome

Loading…

Próximas Passagens (próximas 24 horas)

TLE

AtualizadoSource: Space-Track

Época: Sep 14, 2026, 07:28 UTC

1 13999U 80057G   26257.31146091  .00000874  00000-0  00000-0 0  9997
2 13999  62.6683 298.4761 7238997  26.2307 357.1614  2.01275469331848

Acompanhe COSMOS 1191 DEB em tempo real com AllMySat

Download on the App Store